Погода в Жемчуге

Россия / Республика Бурятия     51°41′29″N   102°27′34″E
темп.,
°C
ветер,
м/с
пор.,
м/с
влажн.,
%
обл.,
%
осадки,
мм/ч
давл.,
гПа
погр.,
м
16 сентября, чт
чт1623:00+6юв01785 0.0 101810
02:00+5с007934 0.0 101710
05:00+4в007531 0.0 101710
08:00+7в11695 0.0 101723
11:00+13сз11565 0.0 1014289
14:00+17з02496 0.0 1011421
17:00+19всв214886 0.0 1010366
20:00+11в3477100 0.0 101360
17 сентября, пт
пт1723:00+8в2288100 0.0 101524
02:00+7юв0190100 0.0 101510
05:00+5вюв00925 0.0 101510
08:00+6всв11895 0.0 101651
11:00+12св117263 0.0 1013449
14:00+15всв125766 0.0 1011648
17:00+16в235896 0.0 1010606
20:00+9в238638 0.1 101257
18 сентября, сб
сб1823:00+7вюв119155 0.0 101414
02:00+5всв009368 0.0 101410
05:00+5всв019251 0.0 101410
08:00+6св00893 0.0 101433
11:00+12сз11713 0.0 1011298
14:00+17сз01536 0.0 1008386
17:00+19в11505 0.0 1007347
20:00+11вюв22799 0.0 100916
19 сентября, вс
вс1923:00+9юв00825 0.0 101110
02:00+8ю00795 0.0 101210
05:00+7вюв017952 0.0 101210
08:00+8в127454 0.0 101329
11:00+14в11625 0.0 1012400
14:00+18в11515 0.0 1011599
17:00+18всв12525 0.0 1009579
20:00+11вюв11795 0.0 101011
20 сентября, пн
пн2023:00+9ю008461 0.0 101110
02:00+8юз008234 0.0 101010
05:00+7ююз007889 0.0 100910
08:00+9зсз007717 0.0 100811
11:00+15ссз11560 0.0 1004249
14:00+20зсз13420 0.0 1000515
17:00+22юв03465 0.0 998436
20:00+13всв226514 0.2 100040